User: anonymous   Login
Location: Banska Bystrica
(0.0000°N, 19.1500°E)
Time: 18:53:11
(UTC+02:00)
Language:

Ariane H10-3 - Orbit

View from above orbital plane
View from above orbital plane
View from above satellite
View from above satellite

Ground track
Ground track

The orbit data is extracted from the following two-line orbital elements,

1 23732U 95067C   19288.31682796  .00001068  00000-0  48067-3 0  9997
2 23732   7.0674   0.1900 6805485 175.9257 195.5147  2.87427843226215
Epoch (UTC): 15 October 2019 07:36:13
Eccentricity: 0.6805485
inclination: 7.0674°
perigee height: 297 km
apogee height: 28737 km
right ascension of ascending node: 0.1900°
argument of perigee: 175.9257°
revolutions per day: 2.87427843
mean anomaly at epoch: 195.5147°
orbit number at epoch: 22621

The dashed part of the orbit path shows where the satellite is in the earth's shadow,  

DLR